Petersburg, AK

1:07 PM AKST on December 06, 2016 (GMT -0900)
Johnson Petersburg

Weather History for PAPG - December, 2012

Change the Weather History Date:

Tuesday, December 4, 2012

  Actual Average Record
Temperature  
Mean Temperature 28 °F -  
Max Temperature 30 °F 36 °F 50 °F (1989)
Min Temperature 26 °F 29 °F 10 °F (2007)
Degree Days  
Heating Degree Days 37    
Moisture  
Dew Point 26 °F    
Average Humidity 90    
Maximum Humidity 93    
Minimum Humidity 86    
Precipitation  
Precipitation 0.00 in - - ()
Sea Level Pressure  
Sea Level Pressure 29.26 in    
Wind  
Wind Speed 2 mph (WSW)    
Max Wind Speed 7 mph    
Max Gust Speed -    
Visibility 5 miles    
Events      
Averages and records for this station are not official NWS values.
T = Trace of Precipitation, MM = Missing Value Source: NWS Daily Summary

Daily Weather History Graph

Daily Weather History Graph

Search for Another Location

Airport or City:

Trip Planner

Search our weather history database for the weather conditions in past years. The results will help you decide how hot, cold, wet, or windy it might be!

Date:

Astronomy

Dec. 04, 2012 Rise Set
Actual Time 8:09 AM AKST 3:14 PM AKST
Civil Twilight 7:22 AM AKST 4:02 PM AKST
Nautical Twilight 6:32 AM AKST 4:51 PM AKST
Astronomical Twilight 5:46 AM AKST 5:38 PM AKST
Moon 9:59 PM AKST (12/4) 11:22 AM AKST (12/4)
Length of Visible Light 8h 40m
Length of Day
7h 04m
Waning Gibbous, 68% of the Moon is Illuminated
Dec 4
Waning Gibbous
Dec 6
Last Quarter
Dec 12
New
Dec 19
First Quarter
Dec 28
Full

Hourly Weather History & Observations

Time (AKST) Temp. Windchill Dew Point Humidity Pressure Visibility Wind Dir Wind Speed Gust Speed Precip Events Conditions
12:16 AM 30.2 °F 25.4 °F 26.6 °F 86% 29.23 in 10.0 mi SW 4.6 mph - N/A   Overcast
12:36 AM 30.2 °F 25.4 °F 26.6 °F 86% 29.22 in 10.0 mi SSW 4.6 mph - N/A   Mostly Cloudy
12:56 AM 30.2 °F 25.4 °F 26.6 °F 86% 29.21 in 8.0 mi SW 4.6 mph - N/A   Mostly Cloudy
1:16 AM 30.2 °F 26.7 °F 26.6 °F 86% 29.21 in 10.0 mi West 3.5 mph - N/A   Overcast
1:36 AM 30.2 °F 25.4 °F 26.6 °F 86% 29.20 in 7.0 mi WSW 4.6 mph - N/A   Overcast
1:56 AM 30.2 °F 26.7 °F 26.6 °F 86% 29.20 in 3.0 mi West 3.5 mph - N/A   Overcast
2:16 AM 30.2 °F 23.4 °F 26.6 °F 86% 29.19 in 3.0 mi West 6.9 mph - N/A   Mostly Cloudy
2:36 AM 30.2 °F 26.7 °F 28.4 °F 93% 29.19 in 2.5 mi West 3.5 mph - N/A   Overcast
2:56 AM 30.2 °F 26.7 °F 28.4 °F 93% 29.18 in 1.5 mi West 3.5 mph - N/A   Overcast
3:16 AM 30.2 °F - 28.4 °F 93% 29.18 in 1.5 mi Calm Calm - N/A   Overcast
3:36 AM 30.2 °F - 28.4 °F 93% 29.17 in 2.0 mi Calm Calm - N/A   Overcast
3:56 AM 30.2 °F - 26.6 °F 86% 29.16 in 2.5 mi Calm Calm - N/A   Overcast
4:16 AM 28.4 °F - 26.6 °F 93% 29.15 in 4.0 mi Calm Calm - N/A   Overcast
4:36 AM 28.4 °F - 26.6 °F 93% 29.15 in 4.0 mi Calm Calm - N/A   Mostly Cloudy
4:56 AM 28.4 °F - 26.6 °F 93% 29.15 in 3.0 mi Calm Calm - N/A   Overcast
5:16 AM 28.4 °F - 26.6 °F 93% 29.14 in 2.0 mi Calm Calm - N/A   Overcast
5:36 AM 28.4 °F - 26.6 °F 93% 29.13 in 2.0 mi Calm Calm - N/A   Overcast
5:56 AM 28.4 °F - 26.6 °F 93% 29.13 in 2.5 mi Calm Calm - N/A   Overcast
6:16 AM 28.4 °F - 26.6 °F 93% 29.12 in 2.5 mi Calm Calm - N/A   Overcast
6:36 AM 28.4 °F - 26.6 °F 93% 29.11 in 1.8 mi Calm Calm - N/A   Overcast
6:56 AM - - - N/A% 29.11 in 2.0 mi Calm Calm - N/A   Overcast
7:16 AM 28.4 °F - 26.6 °F 93% 29.11 in 2.0 mi Calm Calm - N/A   Overcast
7:36 AM 28.4 °F 22.2 °F 26.6 °F 93% 29.11 in 2.0 mi ENE 5.8 mph - N/A   Overcast
7:56 AM 28.4 °F 24.6 °F 26.6 °F 93% 29.11 in 1.8 mi ENE 3.5 mph - N/A   Overcast
8:16 AM 28.4 °F 23.3 °F 24.8 °F 86% 29.11 in 1.8 mi NE 4.6 mph - N/A   Overcast
8:36 AM 26.6 °F - 24.8 °F 93% 29.12 in 5.0 mi Calm Calm - N/A   Overcast
8:56 AM 28.4 °F - 24.8 °F 86% 29.12 in 5.0 mi Calm Calm - N/A   Overcast
9:16 AM 26.6 °F - 24.8 °F 93% 29.13 in 5.0 mi Calm Calm - N/A   Overcast
9:36 AM 26.6 °F - 24.8 °F 93% 29.14 in 5.0 mi Calm Calm - N/A   Overcast
9:56 AM 28.4 °F - 24.8 °F 86% 29.15 in 1.5 mi Calm Calm - N/A   Overcast
10:16 AM 26.6 °F - 24.8 °F 93% 29.16 in 1.5 mi Calm Calm - N/A   Overcast
10:36 AM 28.4 °F - 26.6 °F 93% 29.17 in 2.0 mi Calm Calm - N/A   Overcast
10:56 AM 28.4 °F - 24.8 °F 86% 29.18 in 1.8 mi Calm Calm - N/A   Overcast
11:16 AM 28.4 °F - 24.8 °F 86% 29.19 in 1.8 mi Calm Calm - N/A   Overcast
11:36 AM 28.4 °F - 24.8 °F 86% 29.20 in 5.0 mi Calm Calm - N/A   Overcast
11:56 AM 28.4 °F - 24.8 °F 86% 29.21 in 4.0 mi Calm Calm - N/A   Overcast
12:16 PM 28.4 °F - 26.6 °F 93% 29.22 in 4.0 mi Calm Calm - N/A   Overcast
12:36 PM 28.4 °F - 24.8 °F 86% 29.23 in 4.0 mi Calm Calm - N/A   Overcast
12:56 PM 28.4 °F - 24.8 °F 86% 29.24 in 3.0 mi Calm Calm - N/A   Overcast
1:16 PM 28.4 °F - 24.8 °F 86% 29.25 in 3.0 mi Calm Calm - N/A   Overcast
1:36 PM 28.4 °F - 26.6 °F 93% 29.26 in 3.0 mi Calm Calm - N/A   Overcast
1:56 PM 28.4 °F - 24.8 °F 86% 29.27 in 7.0 mi Calm Calm - N/A   Overcast
2:16 PM 28.4 °F - 24.8 °F 86% 29.28 in 7.0 mi Calm Calm - N/A   Overcast
2:36 PM 28.4 °F - 24.8 °F 86% 29.29 in 7.0 mi Calm Calm - N/A   Overcast
2:56 PM 28.4 °F - 24.8 °F 86% 29.30 in 10.0 mi Calm Calm - N/A   Overcast
3:16 PM 28.4 °F - 24.8 °F 86% 29.32 in 10.0 mi Calm Calm - N/A   Overcast
3:36 PM 28.4 °F - 24.8 °F 86% 29.33 in 10.0 mi Calm Calm - N/A   Overcast
3:56 PM 28.4 °F 24.6 °F 24.8 °F 86% 29.34 in 10.0 mi West 3.5 mph - N/A   Overcast
4:16 PM 28.4 °F - 24.8 °F 86% 29.34 in 4.0 mi Calm Calm - N/A   Overcast
4:36 PM 28.4 °F 24.6 °F 24.8 °F 86% 29.35 in 4.0 mi WSW 3.5 mph - N/A   Overcast
4:56 PM 28.4 °F 23.3 °F 24.8 °F 86% 29.36 in 1.8 mi West 4.6 mph - N/A   Overcast
5:16 PM 26.6 °F 22.6 °F 24.8 °F 93% 29.36 in 1.8 mi WSW 3.5 mph - N/A   Overcast
5:36 PM 26.6 °F 22.6 °F 24.8 °F 93% 29.37 in 10.0 mi West 3.5 mph - N/A   Unknown
5:56 PM 26.6 °F 21.2 °F 24.8 °F 93% 29.37 in 5.0 mi West 4.6 mph - N/A   Overcast
6:16 PM 28.4 °F 24.6 °F 24.8 °F 86% 29.37 in 5.0 mi WSW 3.5 mph - N/A   Overcast
6:36 PM 26.6 °F - 24.8 °F 93% 29.38 in 5.0 mi Calm Calm - N/A   Overcast
6:56 PM 26.6 °F - 24.8 °F 93% 29.38 in 5.0 mi Calm Calm - N/A   Overcast
7:16 PM 26.6 °F - 24.8 °F 93% 29.38 in 5.0 mi Calm Calm - N/A   Overcast
7:36 PM 26.6 °F 22.6 °F 24.8 °F 93% 29.39 in 5.0 mi West 3.5 mph - N/A   Overcast
7:56 PM 26.6 °F 20.0 °F 24.8 °F 93% 29.39 in 7.0 mi West 5.8 mph - N/A   Overcast
8:16 PM 26.6 °F 20.0 °F 24.8 °F 93% 29.40 in 7.0 mi WSW 5.8 mph - N/A   Overcast
8:36 PM 26.6 °F 21.2 °F 24.8 °F 93% 29.40 in 7.0 mi West 4.6 mph - N/A   Overcast
8:56 PM 26.6 °F 22.6 °F 24.8 °F 93% 29.41 in 7.0 mi WSW 3.5 mph - N/A   Overcast
9:16 PM 26.6 °F - 24.8 °F 93% 29.41 in 7.0 mi Calm Calm - N/A   Overcast
9:36 PM 26.6 °F - 24.8 °F 93% 29.42 in 7.0 mi Calm Calm - N/A   Overcast
9:56 PM 26.6 °F - 24.8 °F 93% 29.43 in 7.0 mi Calm Calm - N/A   Overcast
10:16 PM 26.6 °F 21.2 °F 24.8 °F 93% 29.43 in 10.0 mi WSW 4.6 mph - N/A   Overcast
10:36 PM 26.6 °F - 24.8 °F 93% 29.44 in 10.0 mi Calm Calm - N/A   Overcast
10:56 PM 26.6 °F - 24.8 °F 93% 29.45 in 10.0 mi Calm Calm - N/A   Overcast
11:16 PM 26.6 °F 22.6 °F 24.8 °F 93% 29.46 in 10.0 mi SW 3.5 mph - N/A   Overcast
11:36 PM 28.4 °F - 24.8 °F 86% 29.46 in 10.0 mi Calm Calm - N/A   Overcast
11:56 PM 28.4 °F 24.6 °F 24.8 °F 86% 29.47 in 5.0 mi WSW 3.5 mph - N/A   Overcast